Regional Weather Roundup
Issued by NWS

Home | Current Version | Previous Version | Text Only | Print | Product List | Glossary Off
Versions: 1 2 3 4 5 6 7 8 9 10 11 12 13 14 15 16 17 18 19 20 21 22 23 24 25 26 27 28 29 30 31 32 33 34 35 36 37 38 39 40 41 42 43 44 45 46 47 48 49 50

958
ASUS45 KBOU 232207
RWRCO

WEATHER ROUNDUP FOR COLORADO
NATIONAL WEATHER SERVICE DENVER/BOULDER CO
400 PM MDT TUE MAY 23 2017

NOTE: "FAIR" INDICATES FEW OR NO CLOUDS BELOW 12000 FEET WITH NO
SIGNIFICANT WEATHER AND/OR OBSTRUCTIONS TO VISIBILITY.

COZ001>005-013-030-031-232300-
...NORTHWEST COLORADO...

CITY           SKY/WX    TMP DP  RH WIND       PRES   REMARKS
CRAIG          FAIR      61  29  29 NW5       30.22F
HAYDEN         PTSUNNY   57  28  33 NW13      30.23F
MEEKER         FAIR      64  26  23 N6        30.22F
RABBIT EARS PA CLOUDY    32  32 100 W6        30.35S WCI  26
STEAMBOAT SPGS FAIR      55  33  43 SW7       30.23F
WALDEN           N/A     50  25  37 NW13      30.26F
$$

COZ006>008-011-232300-
...WEST CENTRAL VALLEYS...

CITY           SKY/WX    TMP DP  RH WIND       PRES   REMARKS
GRAND JUNCTION FAIR      72  26  18 VRB5      30.13F
MONTROSE       FAIR      65  18  16 VRB5      30.20F
EAGLE          MOSUNNY   59  27  29 S7        30.22F
RIFLE          FAIR      68  14  12 CALM      30.17F
DELTA          FAIR      73  18  12 E5        30.15S
NUCLA          FAIR      70  16  12 NW10      30.20F
$$

COZ017>023-064>068-232300-
...SOUTHWEST COLORADO...

CITY           SKY/WX    TMP DP  RH WIND       PRES   REMARKS
DURANGO        FAIR      71  10   9 N5        30.07F
CORTEZ         FAIR      72  16  12 NW12G22   30.15F
PAGOSA SPRINGS FAIR      67   7   9 CALM      30.13F
TELLURIDE      FAIR      56  18  23 N3        30.32S
WOLF CREEK PAS FAIR      39  10  30 NW6G16    30.41S
$$

COZ009-010-012-014-032>034-037-058>063-232300-
...CENTRAL COLORADO...

CITY           SKY/WX    TMP DP  RH WIND       PRES   REMARKS
ASPEN          FAIR      57  25  29 N13G21    30.23S
BUENA VISTA    FAIR      58  16  19 N24G33    30.20S
COPPER MTN     CLOUDY    34  21  60 MISG      30.36S HAZE
BERTHOUD PASS  CLOUDY    23  12  63 NW39G48   30.30F WCI   3
COTTONWOOD PAS FAIR      54  10  17 NW5       30.28R
GUNNISON       FAIR      58  27  30 W9G21     30.20S
KREMMLING      PTSUNNY   59  28  31 NW7       30.25F
LEADVILLE      FAIR      45  17  32 NW15G30   30.28R
MONARCH PASS   FAIR      37  14  38 N12G26    30.46S
SALIDA         FAIR      63  14  15 N17G28    30.24S
SUNLIGHT       FAIR      41  14  33 NW8       30.41R
WILKERSON PASS PTSUNNY   37  21  52 N9G18     30.34R
$$

COZ069>075-232300-
...SAN LUIS VALLEY/SANGRE DE CRISTO MOUNTAINS...

CITY           SKY/WX    TMP DP  RH WIND       PRES   REMARKS
ALAMOSA        FAIR      63  16  16 NW14G23   30.12F
DEL NORTE      FAIR      60  19  20 NW9       30.17S
LA VETA PASS   PTSUNNY   41  32  70 N9        30.37S
SAGUACHE       FAIR      63  14  15 NW8G30    30.15F
$$

COZ035-036-038>040-232300-
...NORTHERN COLORADO FRONT RANGE...

CITY           SKY/WX    TMP DP  RH WIND       PRES   REMARKS
DENVER INTL AP PTSUNNY   62  33  33 N16G28    30.12F
DMNS CITY PARK   N/A     62  31  30 NE6G21    30.12F
AURORA         PTSUNNY   60  31  33 N16G23    30.14F
FRONT RANGE AP PTSUNNY   61  36  39 N17G28    30.14F
ERIE MUNI ARPT FAIR      65  31  27 NE10G18   30.11F
BOULDER MUN AP CLOUDY    61  28  29 CALM      30.11F
CENTENNIAL     FAIR      58  30  34 N15G23    30.14F
BROOMFIELD     PTSUNNY   63  30  29 NW7       30.14
FORT COLLINS   FAIR      63  34  33 N16       30.11F
LONGMONT       PTSUNNY   66  30  26 NE13      30.12F
$$

COZ041-046-047-076>085-087-088-232300-
...PIKES PEAK/PALMER DIVIDE AND SOUTHERN FOOTHILLS...

CITY           SKY/WX    TMP DP  RH WIND       PRES   REMARKS
COLO. SPRINGS  FAIR      61  26  26 NW23G31   30.13F
A. F. ACADEMY  FAIR      58  26  29 N24G32    30.13F
SCHRIEVER AFB  FAIR      57  28  32 N17G28    30.14F
CHEYENNE MTN   FAIR      55  26  32 N16G23    30.10S
ELLICOTT       FAIR     N/A N/A N/A N21G30    30.13F
FALCON         PTSUNNY   56  29  35 N14G24    30.17F
FORT CARSON    FAIR      61  27  28 N15G24    30.11F
LIMON          FAIR      60  32  34 N26G38    30.11F
MONUMENT HILL  PTSUNNY   52  30  43 N16G22    30.19S
CANON CITY     NOT AVBL
WALSENBURG     NOT AVBL
TRINIDAD       FAIR      61  32  33 N12G18    30.13F
$$

COZ042>045-048>051-090-091-232300-
...NORTHEAST COLORADO...

CITY           SKY/WX    TMP DP  RH WIND       PRES   REMARKS
GREELEY ARPT   FAIR      64  36  35 N13G22    30.10F
AKRON          CLOUDY    57  32  38 N24       30.09F
BURLINGTON     CLOUDY    62  37  39 N20G35    30.06F
WRAY           LGT RAIN  59  36  41 NW18G24   30.05F
YUMA           CLOUDY    55  25  30 N15G25    30.07F
STERLING       PTSUNNY   64  36  34 N13G25    30.06F
HOLYOKE        NOT AVBL
FORT MORGAN    PTSUNNY   61  30  30 NW21G29   30.11S
$$

COZ086-089-092>099-232300-
...SOUTHEAST COLORADO...

CITY           SKY/WX    TMP DP  RH WIND       PRES   REMARKS
PUEBLO         PTSUNNY   65  32  29 NE15G22   30.09F
LA JUNTA       PTSUNNY   65  34  31 N16G24    30.08F
LAMAR          CLOUDY    66  35  31 N17G28    30.05S
SPRINGFIELD      N/A     59  31  34 N25G36    30.08S
$$




USA.gov is the U.S. government's official web portal to all federal, state and local government web resources and services.